Terug naar catalogus

COSMOS 1275 DEB

ActiefPO
NORAD 12950·DEBRIS·🇷🇺 Russia

Gelanceerd Jun 4, 1981 vanaf Plesetsk Cosmodrome

Loading…

Volgende Passages (komende 24 uur)

TLE

VersSource: Space-Track

Epoch: Sep 14, 2026, 07:33 UTC

1 12950U 81053EE  26257.31486887  .00000511  00000-0  24101-3 0  9999
2 12950  83.0137   9.2003 0051581  26.2282   2.5086 14.17395459313351

Volg COSMOS 1275 DEB in realtime met AllMySat

Download on the App Store